Simultaneous Nadir Overpasses (SNOs) Predictions

Prediction of SNOs between GOES-17 and NOAA-19 Satellite Orbit:

Table of predicted SNOs for the next 14.0 days since TLE Epoch: 2/28/2025
Index Date Time (GOES-17) GOES-17 Lat,Lon NOAA-19 Lat,Lon Distance(km) Time Diff (sec)
1 03/01/2025 16:53:55 0.02,-104.42 0.81,-107.97 404.54 80
2 03/02/2025 16:41:21 0.02,-104.42 0.16,-104.90 56.18 80
3 03/03/2025 16:26:07 0.02,-104.42 -0.54,-101.86 292.29 80
4 03/06/2025 04:44:53 -0.02,-104.41 -0.48,-106.33 220.29 80
5 03/07/2025 04:35:00 -0.02,-104.41 0.24,-103.29 128.04 80
6 03/08/2025 04:22:26 -0.01,-104.41 0.97,-100.24 476.31 80
7 03/09/2025 16:53:48 0.00,-104.44 0.74,-107.78 380.70 80
8 03/10/2025 16:41:13 0.00,-104.44 0.07,-104.72 32.08 80
9 03/11/2025 16:25:59 0.00,-104.44 -0.61,-101.66 316.72 80
10 03/14/2025 04:44:44 0.00,-104.44 -0.40,-106.14 194.30 80
